星链-1491 (STARLINK-1491 )

导读 | 星芒AI

STARLINK-1491 是 SpaceX Starlink 项目中的一颗低轨通信卫星,属于第 14 批发射的 Starlink 卫星群。该卫星于 2021 年 11 月 18 日由猎鹰 9 号火箭从美国卡纳维拉尔角发射升空。它运行在约 550 公里的高度,旨在为全球用户提供高速互联网服务。STARLINK-1491 采用先进的相控阵天线和激光通信技术,支持低延迟、高带宽的网络连接,是 SpaceX 构建全球卫星互联网系统的重要组成部分。

基本信息
目录编号:
45778
目录名称:
STARLINK-1491
国际标识:
2020-038BA
轨道中心:
EARTH
卫星名称:
星链-1491
卫星全名:
星链-1491 (STARLINK-1491 )
卫星状态:
已陨落 最后检测时间 2025-08-21
发射日期:
2020-06-13 UTC
国别 :
美国 (US)
星等 :
--
轨道信息
数据来源 国际轨道数据
星历时间: 2025-08-20T20:10:06+0800
轨道信息已过期70天
半长轴: 6562.079km
偏心率: 0.0003094
轨道倾角: 53.015°
近地点辐角 357.142°
升交点赤经 266.953°
平近点角 162.813°
近地点: 181.913km
远地点: 185.975km
周期: 88.170分钟
每日圈数: 16.332049
详细信息
固有亮度:
5
最大亮度:
2.5
卫星平台:
Starlink V1.0
覆盖范围:
全球
运营商:
太空探索技术公司
运营商所在国:
美国
制造商(研发单位):
太空探索技术公司
制造商所在国:
美国
使用方式:
暂无
卫星简介
星链(Starlink)计划是由太空探索技术公司(SpaceX)提出的一个巨型低轨卫星互联网星座项目,计划在2019年至2024年间在太空搭建由约1.2万颗卫星组成的“星链”网络,其中1584颗将部署在地球上空550千米处的近地轨道,并从2020年开始工作。该卫星仍在工作。